QPF
0.04 0.02 0.02 0.01 0.00 0.00 0.00 0.01 0.01 0.00 0.00 0.00 0.00 0.00 0.00 0.00 0.00 0.00 0.04 0.14 0.34 0.34 0.18 0.04 0.01 0.01 0.00 0.00 0.00 0.00 0.00 0.00 0.01 0.00 0.00 0.00 0.00 0.00 0.00 0.00 0.00 0.00
0.00 0.00 0.00 0.00 0.00 0.01 0.00 0.01 0.04 0.04 0.02 0.02 0.00 0.00 0.00 0.00 0.00 0.00 0.01 0.26 0.54 0.52 0.21 0.10 0.22 0.18 0.00 0.00 0.00 0.00 0.00 0.00 0.00 0.00 0.00 0.00 0.00 0.00 0.00 0.00 0.00 0.00
0.00 0.00 0.00 0.00 0.00 0.00 0.00 0.01 0.01 0.01 0.02 0.00 0.00 0.00 0.00 0.00 0.01 0.00 0.00 0.12 0.13 0.20 0.27 0.20 0.30 0.30 0.06 0.00 0.00 0.00 0.00 0.00 0.00 0.01 0.01 0.00 0.00 0.00 0.00 0.00 0.00 0.00
0.00 0.00 0.00 0.00 0.01 0.00 0.00 0.01 0.04 0.04 0.00 0.00 0.00 0.00 0.00 0.00 0.03 0.05 0.00 0.02 0.01 0.03 0.15 0.14 0.15 0.31 0.12 0.06 0.00 0.00 0.00 0.00 0.00 0.04 0.08 0.01 0.00 0.00 0.00 0.00 0.00 0.00
0.00 0.00 0.00 0.00 0.00 0.00 0.01 0.00 0.01 0.02 0.08 0.11 0.06 0.01 0.00 0.00 0.04 0.00 0.00 0.00 0.00 0.05 0.06 0.18 0.18 0.25 0.21 0.05 0.01 0.00 0.00 0.01 0.00 0.05 0.13 0.03 0.05 0.00 0.00 0.00 0.00 0.00
0.00 0.00 0.00 0.00 0.00 0.01 0.00 0.00 0.00 0.00 0.02 0.16 0.12 0.06 0.09 0.02 0.12 0.15 0.00 0.00 0.00 0.00 0.00 0.03 0.12 0.08 0.00 0.01 0.02 0.01 0.01 0.00 0.00 0.01 0.00 0.00 0.03 0.02 0.00 0.00 0.00 0.00
0.00 0.00 0.00 0.00 0.00 0.01 0.00 0.01 0.01 0.01 0.00 0.00 0.11 0.25 0.11 0.20 0.15 0.06 0.13 0.04 0.02 0.00 0.01 0.00 0.00 0.00 0.00 0.01 0.01 0.01 0.01 0.00 0.00 0.00 0.00 0.00 0.00 0.05 0.00 0.00 0.00 0.00
0.06 0.15 0.20 0.07 0.12 0.09 0.03 0.00 0.01 0.02 0.02 0.00 0.00 0.01 0.22 0.15 0.01 0.05 0.03 0.01 0.02 0.05 0.01 0.00 0.00 0.00 0.00 0.00 0.01 0.01 0.01 0.01 0.00 0.00 0.00 0.00 0.00 0.00 0.01 0.00 0.21 0.00
0.28 0.18 0.11 0.13 0.16 0.15 0.20 0.10 0.04 0.00 0.00 0.00 0.00 0.00 0.00 0.01 0.17 0.00 0.01 0.00 0.00 0.04 0.04 0.02 0.00 0.00 0.00 0.00 0.00 0.01 0.01 0.01 0.00 0.00 0.00 0.00 0.00 0.00 0.02 0.20 0.05 0.02
0.11 0.06 0.04 0.13 0.16 0.16 0.15 0.27 0.36 0.23 0.10 0.05 0.00 0.00 0.00 0.00 0.00 0.00 0.00 0.00 0.00 0.00 0.01 0.08 0.08 0.02 0.00 0.00 0.00 0.00 0.00 0.00 0.00 0.00 0.00 0.00 0.00 0.00 0.03 0.37 0.15 0.18
0.40 0.35 0.14 0.10 0.05 0.18 0.16 0.20 0.30 0.30 0.21 0.06 0.01 0.00 0.00 0.00 0.00 0.00 0.00 0.01 0.03 0.03 0.02 0.05 0.17 0.15 0.06 0.01 0.00 0.00 0.00 0.00 0.00 0.00 0.00 0.00 0.00 0.00 0.00 0.16 0.14 0.59
0.20 0.45 0.05 0.02 0.03 0.05 0.14 0.17 0.20 0.14 0.14 0.06 0.04 0.00 0.00 0.00 0.00 0.00 0.00 0.00 0.00 0.01 0.03 0.10 0.17 0.11 0.09 0.05 0.03 0.01 0.00 0.00 0.00 0.02 0.00 0.01 0.02 0.00 0.00 0.00 0.04 0.40
0.00 0.09 0.05 0.01 0.05 0.11 0.04 0.09 0.20 0.12 0.12 0.20 0.14 0.03 0.00 0.00 0.00 0.00 0.00 0.00 0.00 0.01 0.20 0.22 0.14 0.04 0.09 0.05 0.04 0.02 0.01 0.00 0.01 0.01 0.04 0.02 0.00 0.00 0.00 0.00 0.02 0.05
0.00 0.01 0.03 0.14 0.02 0.04 0.04 0.06 0.04 0.12 0.06 0.04 0.05 0.04 0.01 0.00 0.00 0.00 0.00 0.00 0.04 0.31 0.36 0.45 0.39 0.19 0.12 0.16 0.03 0.01 0.02 0.02 0.00 0.02 0.01 0.01 0.03 0.01 0.00 0.00 0.03 0.18
0.00 0.00 0.00 0.00 0.00 0.02 0.02 0.01 0.01 0.00 0.00 0.01 0.01 0.00 0.02 0.00 0.03 0.09 0.03 0.00 0.00 0.08 0.17 0.19 0.33 0.33 0.26 0.19 0.06 0.01 0.00 0.00 0.00 0.00 0.01 0.02 0.02 0.03 0.02 0.02 0.02 0.02
0.00 0.00 0.00 0.00 0.00 0.00 0.00 0.00 0.00 0.00 0.00 0.00 0.00 0.00 0.00 0.03 0.10 0.13 0.08 0.08 0.03 0.00 0.00 0.02 0.15 0.16 0.07 0.02 0.04 0.04 0.02 0.01 0.00 0.00 0.00 0.01 0.01 0.02 0.04 0.05 0.04 0.03
0.00 0.00 0.00 0.00 0.00 0.00 0.00 0.00 0.00 0.00 0.00 0.00 0.00 0.00 0.00 0.00 0.01 0.12 0.28 0.21 0.06 0.05 0.01 0.00 0.00 0.08 0.10 0.01 0.02 0.09 0.31 0.15 0.06 0.01 0.00 0.00 0.03 0.04 0.05 0.08 0.09 0.05
0.00 0.00 0.00 0.00 0.00 0.00 0.00 0.00 0.00 0.00 0.00 0.00 0.00 0.00 0.00 0.00 0.01 0.06 0.21 0.46 0.24 0.22 0.07 0.08 0.10 0.09 0.10 0.28 0.25 0.29 0.36 0.23 0.27 0.20 0.16 0.07 0.06 0.01 0.02 0.05 0.07 0.08
0.00 0.00 0.00 0.00 0.00 0.00 0.00 0.00 0.00 0.00 0.00 0.00 0.00 0.00 0.00 0.00 0.01 0.01 0.09 0.21 0.28 0.22 0.11 0.00 0.00 0.00 0.08 0.28 0.17 0.14 0.14 0.21 0.11 0.20 0.23 0.16 0.05 0.06 0.08 0.02 0.05 0.06
0.00 0.00 0.00 0.00 0.00 0.00 0.00 0.00 0.00 0.00 0.00 0.00 0.00 0.00 0.00 0.00 0.01 0.00 0.05 0.18 0.16 0.10 0.04 0.03 0.00 0.02 0.02 0.09 0.06 0.01 0.00 0.15 0.33 0.19 0.03 0.06 0.10 0.17 0.09 0.06 0.09 0.10
0.00 0.00 0.00 0.00 0.00 0.00 0.00 0.00 0.00 0.00 0.00 0.00 0.00 0.00 0.00 0.00 0.03 0.02 0.03 0.40 0.71 0.46 0.16 0.12 0.11 0.15 0.17 0.05 0.05 0.09 0.06 0.23 0.11 0.01 0.02 0.11 0.16 0.12 0.12 0.13 0.09 0.03
0.00 0.00 0.00 0.00 0.00 0.00 0.00 0.00 0.00 0.00 0.00 0.00 0.00 0.00 0.00 0.03 0.05 0.07 0.20 0.27 0.29 0.18 0.37 0.10 0.10 0.08 0.17 0.08 0.02 0.00 0.28 0.32 0.03 0.13 0.37 0.43 0.17 0.15 0.25 0.20 0.05 0.03
0.00 0.00 0.00 0.00 0.00 0.00 0.00 0.00 0.00 0.00 0.00 0.00 0.00 0.01 0.02 0.07 0.02 0.01 0.11 0.03 0.00 0.02 0.00 0.00 0.00 0.00 0.00 0.00 0.00 0.00 0.05 0.01 0.08 0.19 0.23 0.09 0.03 0.05 0.03 0.03 0.05 0.05
0.00 0.00 0.00 0.00 0.00 0.00 0.00 0.00 0.00 0.00 0.00 0.00 0.00 0.03 0.12 0.06 0.01 0.00 0.00 0.00 0.00 0.00 0.00 0.00 0.00 0.01 0.01 0.00 0.00 0.00 0.00 0.01 0.03 0.01 0.01 0.01 0.01 0.01 0.01 0.00 0.00 0.00
0.00 0.00 0.00 0.00 0.00 0.00 0.00 0.00 0.00 0.00 0.00 0.00 0.02 0.05 0.06 0.00 0.00 0.00 0.00 0.00 0.00 0.00 0.00 0.00 0.00 0.01 0.01 0.01 0.00 0.00 0.00 0.00 0.00 0.00 0.00 0.01 0.04 0.08 0.10 0.06 0.02 0.01
0.00 0.00 0.00 0.00 0.00 0.00 0.00 0.00 0.00 0.00 0.00 0.01 0.03 0.03 0.02 0.00 0.00 0.00 0.00 0.00 0.00 0.00 0.00 0.01 0.01 0.01 0.01 0.00 0.00 0.00 0.00 0.00 0.00 0.01 0.01 0.01 0.01 0.03 0.19 0.13 0.21 0.37
MSLP
1014.35 1014.35 1014.51 1014.47 1014.15 1013.91 1013.75 1013.71 1013.59 1013.59 1013.51 1013.47 1013.63 1013.59 1013.59 1013.47 1013.35 1013.31 1013.11 1012.87 1012.67 1012.71 1013.03 1013.43 1013.63 1013.75 1013.75 1013.91 1014.07 1014.35 1014.67 1014.71 1014.63 1014.59 1014.63 1014.63 1014.67 1014.59 1014.55 1014.35 1014.31 1014.35
1014.23 1014.11 1013.99 1013.87 1013.67 1013.39 1013.23 1013.19 1013.27 1013.35 1013.35 1013.31 1013.31 1013.35 1013.35 1013.35 1013.27 1013.11 1012.99 1012.87 1012.91 1013.07 1013.07 1013.07 1013.11 1013.19 1013.39 1013.71 1013.91 1014.19 1014.39 1014.47 1014.63 1014.31 1014.47 1014.51 1014.47 1014.43 1014.39 1014.19 1014.11 1013.99
1014.23 1014.15 1013.99 1013.87 1013.67 1013.39 1013.11 1012.91 1012.99 1013.03 1013.11 1013.03 1013.03 1013.07 1013.15 1013.07 1013.23 1013.07 1012.75 1012.79 1013.07 1013.07 1012.95 1012.79 1012.91 1013.11 1013.31 1013.47 1013.67 1013.91 1014.15 1014.31 1014.43 1014.27 1014.27 1014.35 1014.27 1014.39 1014.23 1014.03 1013.95 1013.91
1014.03 1013.79 1013.67 1013.51 1013.35 1013.23 1012.99 1012.99 1012.87 1012.87 1012.83 1012.99 1012.99 1012.83 1012.87 1012.87 1013.07 1013.23 1012.79 1012.71 1012.75 1012.71 1012.75 1012.83 1012.87 1012.79 1012.83 1012.99 1013.23 1013.59 1013.75 1013.91 1013.95 1013.95 1014.11 1014.03 1014.03 1014.15 1014.15 1013.99 1013.87 1013.79
1013.83 1013.51 1013.23 1013.07 1012.87 1012.75 1012.75 1012.87 1012.83 1012.71 1012.71 1012.63 1012.63 1012.67 1012.71 1012.71 1012.79 1012.83 1012.75 1012.67 1012.63 1012.67 1012.75 1012.83 1012.79 1012.75 1012.75 1012.99 1013.11 1013.35 1013.43 1013.67 1013.71 1013.67 1013.79 1013.87 1013.71 1013.99 1014.03 1013.95 1013.91 1013.87
1013.31 1012.99 1012.71 1012.63 1012.47 1012.43 1012.51 1012.51 1012.39 1012.39 1012.39 1012.43 1012.43 1012.39 1012.47 1012.51 1012.63 1012.63 1012.55 1012.63 1012.59 1012.55 1012.63 1012.67 1012.71 1012.71 1012.79 1012.87 1012.95 1013.07 1013.15 1013.39 1013.47 1013.47 1013.63 1013.87 1013.75 1013.67 1013.83 1013.71 1013.67 1013.75
1013.11 1012.79 1012.63 1012.31 1012.27 1012.15 1012.19 1012.03 1011.95 1011.95 1012.03 1012.03 1012.15 1012.39 1012.31 1012.47 1012.59 1012.59 1012.55 1012.47 1012.51 1012.51 1012.47 1012.51 1012.51 1012.59 1012.63 1012.71 1012.79 1012.87 1012.87 1012.99 1013.19 1013.31 1013.51 1013.63 1013.63 1013.67 1013.43 1013.47 1013.47 1013.51
1013.99 1014.11 1014.15 1013.99 1013.79 1013.07 1012.47 1011.87 1011.71 1011.67 1011.67 1011.79 1012.07 1012.03 1012.15 1012.31 1012.39 1012.39 1012.47 1012.51 1012.47 1012.47 1012.47 1012.39 1012.31 1012.23 1012.23 1012.31 1012.47 1012.55 1012.67 1012.71 1012.95 1013.11 1013.27 1013.31 1013.35 1013.39 1013.23 1013.15 1013.55 1013.75
1015.03 1014.55 1014.15 1013.87 1013.83 1013.95 1013.99 1013.27 1012.19 1011.75 1011.63 1011.79 1011.83 1011.83 1011.87 1012.03 1012.11 1012.15 1012.23 1012.35 1012.43 1012.39 1012.39 1012.39 1012.27 1012.19 1012.07 1012.07 1012.15 1012.23 1012.35 1012.47 1012.51 1012.75 1012.95 1013.07 1013.11 1013.07 1012.99 1013.19 1013.51 1013.51
1014.67 1014.15 1013.63 1013.35 1013.51 1013.31 1013.35 1013.63 1013.71 1013.43 1013.03 1012.39 1011.79 1011.75 1011.79 1011.75 1011.87 1011.95 1012.03 1012.11 1012.27 1012.35 1012.31 1012.27 1012.19 1012.11 1012.03 1011.99 1012.11 1012.15 1012.23 1012.23 1012.19 1012.27 1012.39 1012.47 1012.59 1012.63 1012.71 1013.31 1013.71 1013.87
1014.67 1014.23 1013.63 1013.27 1013.31 1013.31 1013.19 1013.19 1013.23 1013.39 1013.35 1013.03 1012.27 1011.83 1011.67 1011.71 1011.71 1011.71 1011.95 1012.03 1012.15 1012.15 1012.15 1012.15 1012.07 1011.95 1011.95 1011.95 1011.91 1011.95 1012.11 1012.19 1012.15 1012.03 1011.95 1011.95 1011.95 1012.07 1012.31 1012.99 1013.59 1013.99
1015.11 1014.87 1014.11 1013.63 1013.19 1013.27 1013.63 1013.19 1012.67 1012.67 1012.95 1012.91 1012.55 1012.11 1011.71 1011.59 1011.67 1011.75 1011.83 1011.95 1011.99 1011.95 1011.91 1011.87 1011.79 1011.87 1012.03 1011.99 1011.83 1011.79 1011.91 1012.03 1012.03 1011.99 1011.87 1011.79 1011.71 1011.67 1011.83 1012.15 1013.03 1013.43
1013.75 1013.91 1013.75 1013.47 1013.11 1012.75 1012.91 1012.63 1012.19 1012.35 1012.91 1013.27 1012.83 1012.19 1011.95 1011.67 1011.59 1011.75 1011.75 1011.79 1011.75 1011.67 1011.67 1011.63 1011.63 1011.59 1011.79 1011.95 1011.83 1011.67 1011.67 1011.79 1011.83 1011.83 1011.67 1011.55 1011.47 1011.43 1011.43 1011.63 1011.99 1012.19
1013.47 1013.27 1013.15 1013.03 1012.87 1012.63 1012.47 1012.31 1012.11 1012.31 1012.51 1012.31 1012.19 1012.07 1011.87 1011.63 1011.59 1011.79 1011.83 1011.79 1011.59 1011.39 1011.19 1011.07 1011.07 1011.07 1011.03 1010.99 1011.03 1011.15 1011.31 1011.35 1011.35 1011.39 1011.43 1011.35 1011.19 1011.11 1011.11 1011.27 1011.43 1011.67
1013.47 1013.27 1013.07 1012.87 1012.71 1012.59 1012.43 1012.27 1012.11 1011.91 1011.71 1011.71 1011.75 1011.75 1011.51 1011.43 1011.75 1012.15 1012.07 1011.71 1011.15 1010.75 1010.51 1010.39 1010.47 1010.43 1010.43 1010.55 1010.67 1010.71 1010.79 1010.99 1011.03 1010.95 1010.91 1010.91 1010.79 1010.71 1010.71 1010.87 1011.03 1011.15
1013.55 1013.35 1013.23 1012.99 1012.83 1012.67 1012.43 1012.23 1012.07 1011.87 1011.71 1011.55 1011.47 1011.47 1011.47 1011.59 1012.07 1011.91 1011.43 1010.79 1010.35 1010.19 1010.27 1010.43 1010.51 1010.39 1010.31 1010.39 1010.55 1010.71 1010.75 1010.63 1010.59 1010.63 1010.63 1010.63 1010.55 1010.47 1010.43 1010.43 1010.55 1010.71
1013.63 1013.47 1013.27 1013.19 1012.95 1012.71 1012.51 1012.31 1012.07 1011.87 1011.75 1011.59 1011.47 1011.43 1011.47 1011.43 1011.55 1011.51 1010.87 1010.35 1010.27 1010.43 1010.63 1010.55 1010.35 1010.19 1010.11 1010.19 1010.31 1010.31 1010.35 1010.47 1010.43 1010.39 1010.35 1010.39 1010.35 1010.15 1009.99 1009.87 1009.87 1009.99
1013.75 1013.55 1013.39 1013.23 1013.07 1012.91 1012.63 1012.39 1012.15 1011.95 1011.83 1011.67 1011.51 1011.43 1011.35 1011.27 1011.39 1011.19 1010.63 1010.35 1010.51 1010.51 1010.43 1010.35 1010.23 1009.91 1009.87 1009.91 1009.91 1009.95 1009.99 1010.07 1010.11 1010.19 1010.15 1010.15 1010.15 1010.07 1009.83 1009.63 1009.51 1009.55
1013.91 1013.75 1013.59 1013.31 1013.07 1012.91 1012.67 1012.43 1012.27 1012.11 1011.91 1011.71 1011.55 1011.31 1011.23 1011.27 1011.15 1010.95 1010.63 1010.39 1010.47 1010.55 1010.43 1010.23 1010.07 1009.67 1009.79 1009.87 1009.95 1009.95 1009.91 1009.83 1009.91 1009.95 1010.03 1009.95 1009.79 1009.63 1009.55 1009.51 1009.43 1009.35
1013.95 1013.83 1013.71 1013.43 1013.11 1012.83 1012.67 1012.51 1012.35 1012.19 1011.87 1011.59 1011.43 1011.27 1011.27 1011.11 1010.95 1010.79 1010.51 1010.39 1010.31 1010.35 1010.23 1010.03 1009.87 1009.51 1009.43 1009.47 1009.51 1009.55 1009.63 1009.75 1009.71 1009.71 1009.63 1009.55 1009.59 1009.55 1009.51 1009.39 1009.27 1009.31
1013.99 1013.87 1013.71 1013.43 1013.11 1012.87 1012.67 1012.51 1012.31 1012.07 1011.87 1011.59 1011.39 1011.27 1011.19 1011.03 1010.79 1010.63 1010.31 1010.15 1010.07 1010.03 1010.07 1009.91 1009.59 1009.31 1009.31 1009.23 1009.19 1009.15 1009.15 1009.39 1009.47 1009.43 1009.31 1009.23 1009.07 1008.99 1008.95 1008.99 1008.91 1008.83
1013.83 1013.75 1013.63 1013.43 1013.19 1012.95 1012.75 1012.55 1012.23 1011.99 1011.79 1011.43 1011.23 1011.07 1010.83 1010.67 1010.51 1010.39 1010.23 1009.99 1009.83 1009.83 1009.87 1009.79 1009.43 1009.23 1009.19 1009.11 1008.99 1008.91 1008.99 1009.15 1009.11 1009.11 1009.03 1008.87 1008.67 1008.51 1008.47 1008.47 1008.51 1008.63
1013.63 1013.59 1013.51 1013.31 1013.15 1012.99 1012.79 1012.51 1012.23 1011.87 1011.55 1011.19 1011.19 1010.99 1010.95 1010.95 1010.79 1010.39 1009.95 1009.75 1009.63 1009.59 1009.71 1009.59 1009.35 1009.07 1008.95 1008.83 1008.79 1008.83 1008.99 1008.95 1008.91 1008.87 1008.79 1008.67 1008.47 1008.19 1008.11 1008.11 1008.15 1008.19
1013.35 1013.31 1013.27 1013.15 1013.03 1012.99 1012.71 1012.39 1012.03 1011.71 1011.47 1011.03 1011.03 1010.87 1010.79 1010.59 1010.19 1010.03 1009.67 1009.39 1009.31 1009.27 1009.23 1009.31 1009.15 1008.79 1008.67 1008.63 1008.55 1008.59 1008.75 1008.79 1008.71 1008.75 1008.67 1008.55 1008.35 1008.15 1008.03 1007.99 1007.91 1007.83
1013.07 1012.99 1012.99 1012.87 1012.83 1012.67 1012.47 1012.27 1011.99 1011.67 1011.23 1010.91 1010.71 1010.55 1010.39 1010.11 1009.91 1009.83 1009.47 1009.07 1008.83 1008.79 1008.75 1008.83 1008.71 1008.51 1008.39 1008.35 1008.27 1008.27 1008.43 1008.51 1008.51 1008.55 1008.59 1008.43 1008.27 1008.11 1007.87 1007.91 1007.83 1007.67
1012.87 1012.75 1012.63 1012.59 1012.51 1012.31 1012.15 1011.99 1011.67 1011.47 1011.19 1010.91 1010.63 1010.39 1010.19 1009.87 1009.67 1009.51 1009.35 1008.91 1008.47 1008.43 1008.47 1008.39 1008.39 1008.15 1007.99 1008.03 1007.95 1007.91 1007.99 1008.11 1008.11 1008.31 1008.31 1008.15 1007.99 1007.87 1007.83 1007.67 1007.63 1007.55
Thickness
5764 5763 5761 5761 5761 5762 5762 5762 5762 5761 5760 5759 5758 5757 5757 5758 5759 5761 5764 5768 5770 5769 5767 5763 5761 5761 5763 5763 5762 5760 5758 5758 5759 5761 5762 5762 5762 5765 5767 5769 5771 5772
5764 5765 5764 5764 5765 5766 5767 5766 5764 5763 5761 5760 5759 5757 5756 5756 5756 5759 5763 5765 5765 5765 5765 5764 5763 5763 5763 5762 5761 5760 5758 5758 5759 5761 5761 5761 5762 5763 5765 5768 5770 5771
5765 5765 5765 5765 5766 5767 5768 5768 5766 5764 5763 5761 5760 5758 5756 5756 5755 5757 5761 5762 5761 5761 5762 5763 5764 5763 5762 5762 5761 5759 5758 5757 5758 5760 5761 5761 5763 5762 5764 5766 5769 5770
5766 5767 5768 5768 5767 5767 5767 5767 5766 5765 5763 5761 5761 5759 5758 5757 5754 5754 5758 5760 5760 5760 5760 5760 5762 5764 5764 5763 5762 5760 5758 5757 5758 5760 5761 5762 5764 5763 5763 5764 5766 5769
5766 5768 5769 5769 5769 5769 5767 5766 5765 5765 5764 5762 5761 5760 5758 5757 5755 5754 5756 5757 5758 5758 5758 5758 5759 5762 5763 5762 5761 5760 5759 5758 5758 5760 5760 5760 5763 5762 5762 5763 5764 5766
5768 5769 5770 5770 5770 5769 5768 5767 5767 5766 5765 5763 5762 5760 5758 5756 5754 5754 5755 5754 5755 5756 5757 5757 5758 5760 5759 5759 5759 5759 5759 5758 5758 5760 5758 5758 5760 5762 5762 5763 5764 5765
5766 5764 5764 5764 5766 5767 5767 5768 5768 5766 5766 5764 5762 5760 5758 5756 5754 5753 5753 5753 5753 5753 5754 5756 5757 5758 5758 5757 5758 5758 5759 5758 5758 5759 5757 5756 5758 5759 5761 5763 5764 5764
5754 5752 5752 5752 5754 5756 5759 5764 5766 5766 5765 5764 5762 5760 5758 5756 5754 5753 5752 5751 5751 5751 5751 5753 5754 5757 5758 5757 5756 5757 5758 5758 5758 5757 5756 5757 5757 5758 5761 5763 5761 5761
5745 5748 5750 5752 5751 5751 5751 5753 5757 5760 5760 5760 5760 5759 5758 5756 5755 5754 5752 5750 5750 5749 5749 5750 5751 5754 5755 5755 5754 5754 5755 5756 5757 5757 5757 5757 5758 5759 5761 5760 5758 5758
5744 5751 5755 5755 5753 5752 5750 5748 5748 5748 5749 5752 5756 5757 5757 5756 5755 5754 5752 5750 5749 5748 5748 5748 5749 5751 5751 5751 5751 5750 5750 5751 5753 5756 5757 5758 5758 5760 5759 5757 5753 5753
5740 5748 5755 5756 5752 5749 5748 5747 5748 5747 5746 5749 5752 5755 5756 5755 5753 5753 5751 5750 5748 5747 5746 5746 5747 5748 5748 5748 5748 5747 5747 5746 5748 5751 5754 5757 5759 5759 5758 5755 5750 5748
5735 5738 5746 5751 5751 5748 5743 5745 5750 5751 5747 5746 5748 5752 5754 5753 5752 5751 5749 5747 5746 5746 5746 5746 5746 5747 5745 5745 5745 5746 5745 5744 5745 5747 5749 5752 5755 5756 5758 5756 5751 5750
5740 5738 5741 5744 5747 5747 5744 5745 5750 5750 5745 5742 5743 5748 5751 5751 5751 5748 5746 5745 5745 5745 5746 5746 5747 5747 5746 5744 5746 5746 5745 5744 5745 5746 5747 5750 5752 5754 5756 5755 5754 5755
5741 5740 5742 5743 5744 5745 5745 5745 5747 5746 5744 5742 5742 5745 5748 5750 5748 5744 5742 5742 5743 5745 5748 5749 5749 5749 5749 5749 5748 5747 5746 5745 5746 5747 5748 5750 5752 5754 5755 5755 5755 5756
5738 5738 5739 5741 5742 5742 5743 5743 5743 5744 5744 5744 5744 5744 5746 5745 5741 5738 5739 5743 5747 5750 5750 5750 5750 5750 5750 5750 5747 5746 5744 5744 5745 5747 5748 5750 5752 5754 5755 5755 5755 5756
5734 5734 5734 5735 5737 5738 5738 5739 5740 5741 5742 5743 5744 5743 5742 5740 5736 5735 5742 5749 5752 5752 5750 5749 5748 5748 5749 5748 5746 5744 5743 5743 5743 5745 5746 5747 5749 5752 5754 5756 5756 5757
5730 5730 5729 5729 5731 5732 5733 5734 5735 5737 5738 5739 5740 5740 5739 5737 5733 5736 5744 5750 5749 5748 5747 5746 5746 5747 5748 5747 5746 5744 5743 5743 5743 5744 5744 5744 5745 5749 5752 5755 5757 5757
5724 5724 5724 5724 5725 5726 5727 5729 5730 5732 5733 5734 5736 5736 5736 5734 5732 5734 5741 5746 5744 5743 5743 5743 5744 5746 5746 5744 5745 5744 5744 5744 5744 5744 5744 5744 5744 5747 5749 5752 5754 5756
5715 5716 5716 5717 5719 5720 5721 5723 5723 5725 5727 5729 5731 5732 5732 5732 5731 5732 5737 5741 5741 5739 5740 5740 5741 5744 5745 5743 5742 5742 5742 5743 5743 5743 5743 5743 5744 5746 5748 5750 5751 5752
5708 5709 5709 5710 5712 5713 5715 5717 5717 5719 5721 5724 5726 5727 5728 5728 5728 5729 5733 5736 5738 5737 5737 5738 5739 5742 5743 5742 5741 5741 5741 5740 5740 5740 5741 5742 5743 5744 5745 5748 5749 5751
5702 5703 5703 5705 5706 5708 5709 5711 5713 5714 5716 5719 5721 5721 5723 5725 5726 5726 5729 5732 5734 5734 5734 5735 5737 5739 5740 5740 5740 5740 5740 5739 5738 5738 5739 5741 5743 5744 5745 5746 5748 5750
5698 5698 5699 5700 5701 5702 5704 5706 5708 5710 5712 5714 5716 5717 5719 5720 5721 5723 5725 5728 5730 5730 5730 5730 5732 5735 5736 5737 5738 5738 5738 5737 5737 5738 5738 5740 5742 5745 5746 5747 5747 5748
5694 5694 5695 5695 5696 5697 5698 5701 5704 5706 5709 5711 5712 5712 5713 5713 5715 5720 5723 5725 5726 5726 5726 5726 5728 5731 5732 5734 5734 5735 5735 5735 5735 5736 5737 5738 5740 5743 5745 5746 5747 5747
5691 5691 5691 5691 5692 5693 5694 5696 5699 5701 5704 5707 5708 5709 5710 5710 5713 5717 5721 5724 5725 5724 5724 5724 5724 5727 5729 5731 5731 5732 5732 5732 5733 5733 5733 5735 5737 5739 5741 5743 5744 5745
5689 5688 5688 5688 5688 5689 5690 5692 5694 5697 5700 5703 5704 5705 5707 5708 5709 5712 5716 5721 5723 5723 5723 5722 5722 5723 5725 5727 5729 5729 5730 5730 5731 5731 5731 5731 5733 5735 5737 5739 5740 5742
5685 5685 5685 5686 5685 5686 5687 5688 5690 5692 5694 5696 5699 5701 5703 5704 5706 5707 5711 5715 5719 5721 5721 5720 5719 5720 5722 5724 5726 5727 5727 5728 5728 5728 5728 5729 5731 5733 5735 5736 5737 5738